Year,Month,Day,Hour,Minute,Value (Times are PST for temperature in C)
2007,09,11,00,00,15.20
2007,09,11,00,01,15.20
2007,09,11,00,02,15.20
2007,09,11,00,03,15.20
2007,09,11,00,04,15.20
2007,09,11,00,05,15.20
2007,09,11,00,06,15.20
2007,09,11,00,07,15.20
2007,09,11,00,08,15.20
2007,09,11,00,09,15.20
2007,09,11,00,10,15.20
2007,09,11,00,11,15.20
2007,09,11,00,12,15.20
2007,09,11,01,02,15.20
2007,09,11,01,03,15.10
2007,09,11,01,04,15.10
2007,09,11,01,05,15.10
2007,09,11,01,06,15.10
2007,09,11,01,07,15.10
2007,09,11,01,08,15.10
2007,09,11,01,09,15.10
2007,09,11,01,10,15.10
2007,09,11,01,11,15.10
2007,09,11,01,12,15.00
2007,09,11,01,13,15.00
2007,09,11,01,14,15.00
2007,09,11,01,15,15.00
2007,09,11,01,16,15.00
2007,09,11,01,17,15.00
2007,09,11,01,18,15.00
2007,09,11,01,19,15.00
2007,09,11,01,20,15.00
2007,09,11,01,21,15.00
2007,09,11,01,22,15.00
2007,09,11,01,23,15.00
2007,09,11,01,24,15.00
2007,09,11,01,25,14.90
2007,09,11,01,26,14.90
2007,09,11,01,27,14.90
2007,09,11,01,28,14.90
2007,09,11,01,29,14.90
2007,09,11,01,30,14.90
2007,09,11,01,31,14.90
2007,09,11,01,32,14.90
2007,09,11,01,33,14.90
2007,09,11,01,34,14.90
2007,09,11,01,35,14.90
2007,09,11,01,36,15.00
2007,09,11,01,37,15.00
2007,09,11,01,38,15.00
2007,09,11,01,39,15.00
2007,09,11,01,40,15.00
2007,09,11,01,41,15.00
2007,09,11,01,42,15.00
2007,09,11,01,43,15.00
2007,09,11,01,44,15.00
2007,09,11,01,45,15.00
2007,09,11,01,46,15.00
2007,09,11,01,47,15.00
2007,09,11,01,48,15.00
2007,09,11,01,49,15.00
2007,09,11,01,50,15.00
2007,09,11,01,51,15.00
2007,09,11,01,52,15.00
2007,09,11,01,53,15.00
2007,09,11,01,54,15.00
2007,09,11,01,55,15.00
2007,09,11,01,56,15.00
2007,09,11,01,57,15.00
2007,09,11,01,58,15.00
2007,09,11,01,59,15.00
2007,09,11,02,00,15.00
2007,09,11,02,01,15.00
2007,09,11,02,02,15.00
2007,09,11,02,03,15.00
2007,09,11,02,04,15.00
2007,09,11,02,05,15.00
2007,09,11,02,06,15.00
2007,09,11,02,07,15.00
2007,09,11,02,08,15.00
2007,09,11,02,09,15.00
2007,09,11,02,10,15.00
2007,09,11,02,11,15.00
2007,09,11,02,12,15.00
2007,09,11,02,13,15.10
2007,09,11,02,14,15.10
2007,09,11,02,15,15.10
2007,09,11,02,16,15.10
2007,09,11,02,17,15.10
2007,09,11,02,18,15.10
2007,09,11,02,19,15.10
2007,09,11,02,20,15.10
2007,09,11,02,21,15.10
2007,09,11,02,22,15.10
2007,09,11,02,23,15.10
2007,09,11,02,24,15.10
2007,09,11,02,25,15.10
2007,09,11,02,26,15.20
2007,09,11,02,27,15.20
2007,09,11,02,28,15.20
2007,09,11,02,29,15.20
2007,09,11,02,30,15.20
2007,09,11,02,31,15.30
2007,09,11,02,32,15.30
2007,09,11,02,33,15.30
2007,09,11,02,34,15.30
2007,09,11,02,35,15.30
2007,09,11,02,36,15.30
2007,09,11,02,37,15.30
2007,09,11,02,38,15.30
2007,09,11,02,39,15.30
2007,09,11,02,40,15.30
2007,09,11,02,41,15.30
2007,09,11,02,42,15.40
2007,09,11,02,43,15.40
2007,09,11,02,44,15.40
2007,09,11,02,45,15.40
2007,09,11,02,46,15.50
2007,09,11,02,47,15.50
2007,09,11,02,48,15.50
2007,09,11,02,49,15.50
2007,09,11,02,50,15.50
2007,09,11,02,51,15.50
2007,09,11,02,52,15.50
2007,09,11,02,53,15.50
2007,09,11,02,54,15.50
2007,09,11,02,55,15.50
2007,09,11,02,56,15.50
2007,09,11,02,57,15.50
2007,09,11,02,58,15.50
2007,09,11,02,59,15.50
2007,09,11,03,00,15.50
2007,09,11,03,01,15.50
2007,09,11,03,02,15.50
2007,09,11,03,03,15.50
2007,09,11,03,04,15.50
2007,09,11,03,05,15.50
2007,09,11,03,06,15.50
2007,09,11,03,07,15.60
2007,09,11,03,08,15.60
2007,09,11,03,09,15.50
2007,09,11,03,10,15.50
2007,09,11,03,11,15.50
2007,09,11,03,12,15.50
2007,09,11,03,13,15.50
2007,09,11,03,14,15.50
2007,09,11,03,15,15.50
2007,09,11,03,16,15.50
2007,09,11,03,17,15.50
2007,09,11,03,18,15.50
2007,09,11,03,19,15.50
2007,09,11,03,20,15.50
2007,09,11,03,21,15.50
2007,09,11,03,22,15.50
2007,09,11,03,23,15.50
2007,09,11,03,24,15.50
2007,09,11,03,25,15.50
2007,09,11,03,26,15.50
2007,09,11,03,27,15.50
2007,09,11,03,28,15.50
2007,09,11,03,29,15.50
2007,09,11,03,30,15.50
2007,09,11,03,31,15.50
2007,09,11,03,32,15.50
2007,09,11,03,33,15.50
2007,09,11,03,34,15.50
2007,09,11,03,35,15.50
2007,09,11,03,36,15.50
2007,09,11,03,37,15.50
2007,09,11,03,38,15.50
2007,09,11,03,39,15.50
2007,09,11,03,40,15.50
2007,09,11,03,41,15.40
2007,09,11,03,42,15.40
2007,09,11,03,43,15.40
2007,09,11,03,44,15.40
2007,09,11,03,45,15.40
2007,09,11,03,46,15.40
2007,09,11,03,47,15.40
2007,09,11,03,48,15.30
2007,09,11,03,49,15.30
2007,09,11,03,50,15.30
2007,09,11,03,51,15.30
2007,09,11,03,52,15.30
2007,09,11,03,53,15.30
2007,09,11,03,54,15.30
2007,09,11,03,55,15.30
2007,09,11,03,56,15.30
2007,09,11,03,57,15.30
2007,09,11,03,58,15.30
2007,09,11,03,59,15.30
2007,09,11,04,00,15.20
2007,09,11,04,01,15.20
2007,09,11,04,02,15.20
2007,09,11,04,03,15.20
2007,09,11,04,04,15.20
2007,09,11,04,05,15.20
2007,09,11,04,06,15.20
2007,09,11,04,07,15.10
2007,09,11,04,08,15.10
2007,09,11,04,09,15.10
2007,09,11,04,10,15.10
2007,09,11,04,11,15.10
2007,09,11,04,12,15.10
2007,09,11,04,13,15.10
2007,09,11,04,14,15.00
2007,09,11,04,15,15.00
2007,09,11,04,16,15.00
2007,09,11,04,17,15.00
2007,09,11,04,18,15.00
2007,09,11,04,19,15.00
2007,09,11,04,20,15.00
2007,09,11,04,21,14.90
2007,09,11,04,22,14.90
2007,09,11,04,23,14.90
2007,09,11,04,24,14.90
2007,09,11,04,25,14.90
2007,09,11,04,26,14.80
2007,09,11,04,27,14.80
2007,09,11,04,28,14.80
2007,09,11,04,29,14.80
2007,09,11,04,30,14.80
2007,09,11,04,31,14.80
2007,09,11,04,32,14.80
2007,09,11,04,33,14.80
2007,09,11,04,34,14.70
2007,09,11,04,35,14.70
2007,09,11,04,36,14.70
2007,09,11,04,37,14.70
2007,09,11,04,38,14.70
2007,09,11,04,39,14.70
2007,09,11,04,40,14.60
2007,09,11,04,41,14.60
2007,09,11,04,42,14.60
2007,09,11,04,43,14.60
2007,09,11,04,44,14.60
2007,09,11,04,45,14.60
2007,09,11,04,46,14.50
2007,09,11,04,47,14.50
2007,09,11,04,48,14.50
2007,09,11,04,49,14.50
2007,09,11,04,50,14.50
2007,09,11,04,51,14.50
2007,09,11,04,52,14.50
2007,09,11,04,53,14.50
2007,09,11,04,54,14.50
2007,09,11,04,55,14.40
2007,09,11,04,56,14.40
2007,09,11,04,57,14.40
2007,09,11,04,58,14.40
2007,09,11,04,59,14.40
2007,09,11,05,00,14.40
2007,09,11,05,01,14.40
2007,09,11,05,02,14.30
2007,09,11,05,03,14.30
2007,09,11,05,04,14.30
2007,09,11,05,05,14.30
2007,09,11,05,06,14.30
2007,09,11,05,07,14.30
2007,09,11,05,08,14.30
2007,09,11,05,09,14.30
2007,09,11,05,10,14.30
2007,09,11,05,11,14.30
2007,09,11,05,12,14.30
2007,09,11,05,13,14.30
2007,09,11,05,14,14.30
2007,09,11,05,15,14.30
2007,09,11,05,16,14.30
2007,09,11,05,17,14.30
2007,09,11,05,18,14.20
2007,09,11,05,19,14.20
2007,09,11,05,20,14.20
2007,09,11,05,21,14.20
2007,09,11,05,22,14.20
2007,09,11,05,23,14.20
2007,09,11,05,24,14.20
2007,09,11,05,25,14.20
2007,09,11,05,26,14.20
2007,09,11,05,27,14.20
2007,09,11,05,28,14.20
2007,09,11,05,29,14.20
2007,09,11,05,30,14.20
2007,09,11,05,31,14.20
2007,09,11,05,32,14.20
2007,09,11,05,33,14.20
2007,09,11,05,34,14.20
2007,09,11,05,35,14.20
2007,09,11,05,36,14.20
2007,09,11,05,37,14.20
2007,09,11,05,38,14.20
2007,09,11,05,39,14.20
2007,09,11,05,40,14.20
2007,09,11,05,41,14.20
2007,09,11,05,42,14.20
2007,09,11,05,43,14.20
2007,09,11,05,44,14.20
2007,09,11,05,45,14.20
2007,09,11,05,46,14.20
2007,09,11,05,47,14.20
2007,09,11,05,48,14.20
2007,09,11,05,49,14.20
2007,09,11,05,50,14.20
2007,09,11,05,51,14.20
2007,09,11,05,52,14.20
2007,09,11,05,53,14.20
2007,09,11,05,54,14.20
2007,09,11,05,55,14.20
2007,09,11,05,56,14.20
2007,09,11,05,57,14.20
2007,09,11,05,58,14.20
2007,09,11,05,59,14.20
2007,09,11,06,00,14.20
2007,09,11,06,01,14.20
2007,09,11,06,02,14.10
2007,09,11,06,03,14.10
2007,09,11,06,04,14.10
2007,09,11,06,05,14.10
2007,09,11,06,06,14.10
2007,09,11,06,07,14.10
2007,09,11,06,08,14.10
2007,09,11,06,09,14.00
2007,09,11,06,10,14.00
2007,09,11,06,11,14.00
2007,09,11,06,12,14.00
2007,09,11,06,13,14.00
2007,09,11,06,14,14.00
2007,09,11,06,15,14.00
2007,09,11,06,16,13.90
2007,09,11,06,17,13.90
2007,09,11,06,18,13.90
2007,09,11,06,19,13.90
2007,09,11,06,20,13.90
2007,09,11,06,21,13.90
2007,09,11,06,22,13.90
2007,09,11,06,23,13.90
2007,09,11,06,24,13.80
2007,09,11,06,25,13.80
2007,09,11,06,26,13.80
2007,09,11,06,27,13.80
2007,09,11,06,28,13.80
2007,09,11,06,29,13.80
2007,09,11,06,30,13.80
2007,09,11,06,31,13.80
2007,09,11,06,32,13.80
2007,09,11,06,33,13.70
2007,09,11,06,34,13.70
2007,09,11,06,35,13.70
2007,09,11,06,36,13.70
2007,09,11,06,37,13.70
2007,09,11,06,38,13.70
2007,09,11,06,39,13.70
2007,09,11,06,40,13.70
2007,09,11,06,41,13.70
2007,09,11,06,42,13.70
2007,09,11,06,43,13.70
2007,09,11,06,44,13.70
2007,09,11,06,45,13.70
2007,09,11,06,46,13.70
2007,09,11,06,47,13.70
2007,09,11,06,48,13.70
2007,09,11,06,49,13.70
2007,09,11,06,50,13.70
2007,09,11,06,51,13.70
2007,09,11,06,52,13.70
2007,09,11,06,53,13.70
2007,09,11,06,54,13.70
2007,09,11,06,55,13.70
2007,09,11,06,56,13.70
2007,09,11,06,57,13.70
2007,09,11,06,58,13.70
2007,09,11,06,59,13.70
2007,09,11,07,00,13.70
2007,09,11,07,01,13.70
2007,09,11,07,02,13.70
2007,09,11,07,03,13.70
2007,09,11,07,04,13.70
2007,09,11,07,05,13.70
2007,09,11,07,06,13.70
2007,09,11,07,07,13.70
2007,09,11,07,08,13.70
2007,09,11,07,09,13.70
2007,09,11,07,10,13.70
2007,09,11,07,11,13.70
2007,09,11,07,12,13.70
2007,09,11,07,13,13.70
2007,09,11,07,14,13.70
2007,09,11,07,15,13.70
2007,09,11,07,16,13.70
2007,09,11,07,17,13.70
2007,09,11,07,18,13.70
2007,09,11,07,19,13.70
2007,09,11,07,20,13.70
2007,09,11,07,21,13.70
2007,09,11,07,22,13.70
2007,09,11,07,23,13.70
2007,09,11,07,24,13.70
2007,09,11,07,25,13.70
2007,09,11,07,26,13.70
2007,09,11,07,27,13.70
2007,09,11,07,28,13.70
2007,09,11,07,29,13.70
2007,09,11,07,30,13.70
2007,09,11,07,31,13.70
2007,09,11,07,32,13.70
2007,09,11,07,33,13.70
2007,09,11,07,34,13.70
2007,09,11,07,35,13.70
2007,09,11,07,36,13.70
2007,09,11,07,37,13.70
2007,09,11,07,38,13.70
2007,09,11,07,39,13.70
2007,09,11,07,40,13.70
2007,09,11,07,41,13.70
2007,09,11,07,42,13.70
2007,09,11,07,43,13.70
2007,09,11,07,44,13.70
2007,09,11,07,45,13.80
2007,09,11,07,46,13.80
2007,09,11,07,47,13.80
2007,09,11,07,48,13.80
2007,09,11,07,49,13.80
2007,09,11,07,50,13.90
2007,09,11,07,51,13.90
2007,09,11,07,52,13.90
2007,09,11,07,53,13.90
2007,09,11,07,54,14.00
2007,09,11,07,55,14.00
2007,09,11,07,56,14.00
2007,09,11,07,57,14.00
2007,09,11,07,58,14.10
2007,09,11,07,59,14.10
2007,09,11,08,00,14.20
2007,09,11,08,01,14.20
2007,09,11,08,02,14.20
2007,09,11,08,03,14.20
2007,09,11,08,04,14.20
2007,09,11,08,05,14.30
2007,09,11,08,06,14.30
2007,09,11,08,07,14.30
2007,09,11,08,08,14.40
2007,09,11,08,09,14.40
2007,09,11,08,10,14.40
2007,09,11,08,11,14.50
2007,09,11,08,12,14.50
2007,09,11,08,13,14.50
2007,09,11,08,14,14.50
2007,09,11,08,15,14.60
2007,09,11,08,16,14.60
2007,09,11,08,17,14.60
2007,09,11,08,18,14.70
2007,09,11,08,19,14.80
2007,09,11,08,20,14.90
2007,09,11,08,21,15.00
2007,09,11,08,22,15.10
2007,09,11,08,23,15.20
2007,09,11,08,24,15.30
2007,09,11,08,25,15.40
2007,09,11,08,26,15.50
2007,09,11,08,27,15.60
2007,09,11,08,28,15.60
2007,09,11,08,29,15.70
2007,09,11,08,30,15.80
2007,09,11,08,31,15.80
2007,09,11,08,32,15.90
2007,09,11,08,33,15.90
2007,09,11,08,34,16.10
2007,09,11,08,35,16.10
2007,09,11,08,36,16.10
2007,09,11,08,37,16.20
2007,09,11,08,38,16.20
2007,09,11,08,39,16.30
2007,09,11,08,40,16.40
2007,09,11,08,41,16.50
2007,09,11,08,42,16.60
2007,09,11,08,43,16.70
2007,09,11,08,44,16.90
2007,09,11,08,45,17.00
2007,09,11,08,46,17.20
2007,09,11,08,47,17.30
2007,09,11,08,48,17.50
2007,09,11,08,49,17.60
2007,09,11,08,50,17.70
2007,09,11,08,51,17.80
2007,09,11,08,52,17.90
2007,09,11,08,53,17.90
2007,09,11,08,54,17.90
2007,09,11,08,55,18.10
2007,09,11,08,56,18.10
2007,09,11,08,57,18.20
2007,09,11,08,58,18.20
2007,09,11,08,59,18.30
2007,09,11,09,00,18.40
2007,09,11,09,01,18.50
2007,09,11,09,02,18.50
2007,09,11,09,03,18.60
2007,09,11,09,04,18.70
2007,09,11,09,05,18.80
2007,09,11,09,06,18.80
2007,09,11,09,07,18.90
2007,09,11,09,08,18.90
2007,09,11,09,09,18.90
2007,09,11,09,10,18.90
2007,09,11,09,11,18.90
2007,09,11,09,12,19.10
2007,09,11,09,13,19.10
2007,09,11,09,14,19.10
2007,09,11,09,15,19.10
2007,09,11,09,16,19.20
2007,09,11,09,17,19.30
2007,09,11,09,18,19.40
2007,09,11,09,19,19.40
2007,09,11,09,20,19.50
2007,09,11,09,21,19.50
2007,09,11,09,22,19.50
2007,09,11,09,23,19.50
2007,09,11,09,24,19.60
2007,09,11,09,25,19.60
2007,09,11,09,26,19.70
2007,09,11,09,27,19.80
2007,09,11,09,28,19.90
2007,09,11,09,29,19.90
2007,09,11,09,30,20.00
2007,09,11,09,31,20.20
2007,09,11,09,32,20.20
2007,09,11,09,33,20.20
2007,09,11,09,34,20.30
2007,09,11,09,35,20.40
2007,09,11,09,36,20.50
2007,09,11,09,37,20.60
2007,09,11,09,38,20.60
2007,09,11,09,39,20.60
2007,09,11,09,40,20.70
2007,09,11,09,41,20.70
2007,09,11,09,42,20.70
2007,09,11,09,43,20.70
2007,09,11,09,44,20.70
2007,09,11,09,45,20.70
2007,09,11,09,46,20.80
2007,09,11,09,47,20.80
2007,09,11,09,48,20.80
2007,09,11,09,49,20.80
2007,09,11,09,50,20.80
2007,09,11,09,51,20.80
2007,09,11,09,52,20.70
2007,09,11,09,53,20.80
2007,09,11,09,54,20.80
2007,09,11,09,55,20.90
2007,09,11,09,56,20.90
2007,09,11,09,57,21.00
2007,09,11,09,58,21.00
2007,09,11,09,59,21.00
2007,09,11,10,00,21.10
2007,09,11,10,01,21.20
2007,09,11,10,02,21.10
2007,09,11,10,03,21.10
2007,09,11,10,04,21.10
2007,09,11,10,05,21.10
2007,09,11,10,06,21.10
2007,09,11,10,07,21.10
2007,09,11,10,08,21.30
2007,09,11,10,09,21.30
2007,09,11,10,10,21.50
2007,09,11,10,11,21.60
2007,09,11,10,12,21.60
2007,09,11,10,13,21.60
2007,09,11,10,14,21.70
2007,09,11,10,15,21.70
2007,09,11,10,16,21.70
2007,09,11,10,17,21.70
2007,09,11,10,18,21.70
2007,09,11,10,19,21.60
2007,09,11,10,20,21.70
2007,09,11,10,21,21.70
2007,09,11,10,22,21.70
2007,09,11,10,23,21.60
2007,09,11,10,24,21.60
2007,09,11,10,25,21.60
2007,09,11,10,26,21.60
2007,09,11,10,27,21.60
2007,09,11,10,28,21.60
2007,09,11,10,29,21.60
2007,09,11,10,30,21.60
2007,09,11,10,31,21.60
2007,09,11,10,32,21.60
2007,09,11,10,33,21.60
2007,09,11,10,34,21.60
2007,09,11,10,35,21.60
2007,09,11,10,36,21.60
2007,09,11,10,37,21.60
2007,09,11,10,38,21.60
2007,09,11,10,39,21.60
2007,09,11,10,40,21.60
2007,09,11,10,41,21.60
2007,09,11,10,42,21.60
2007,09,11,10,43,21.60
2007,09,11,10,44,21.60
2007,09,11,10,45,21.70
2007,09,11,10,46,21.70
2007,09,11,10,47,21.80
2007,09,11,10,48,21.90
2007,09,11,10,49,22.00
2007,09,11,10,50,22.00
2007,09,11,10,51,22.10
2007,09,11,10,52,22.10
2007,09,11,10,53,22.10
2007,09,11,10,54,22.10
2007,09,11,10,55,22.10
2007,09,11,10,56,22.10
2007,09,11,10,57,22.00
2007,09,11,10,58,22.10
2007,09,11,10,59,22.10
2007,09,11,11,00,22.10
2007,09,11,11,01,22.10
2007,09,11,11,02,22.00
2007,09,11,11,03,21.90
2007,09,11,11,04,21.90
2007,09,11,11,05,21.70
2007,09,11,11,06,21.70
2007,09,11,11,07,21.60
2007,09,11,11,08,21.60
2007,09,11,11,09,21.60
2007,09,11,11,10,21.60
2007,09,11,11,11,21.60
2007,09,11,11,12,21.60
2007,09,11,11,13,21.70
2007,09,11,11,14,21.70
2007,09,11,11,15,21.80
2007,09,11,11,16,22.00
2007,09,11,11,17,22.00
2007,09,11,11,18,22.00
2007,09,11,11,19,22.10
2007,09,11,11,20,22.10
2007,09,11,11,21,22.10
2007,09,11,11,22,22.10
2007,09,11,11,23,22.00
2007,09,11,11,24,22.00
2007,09,11,11,25,21.90
2007,09,11,11,26,22.00
2007,09,11,11,27,22.10
2007,09,11,11,28,22.20
2007,09,11,11,29,22.30
2007,09,11,11,30,22.50
2007,09,11,11,31,22.60
2007,09,11,11,32,22.60
2007,09,11,11,33,22.60
2007,09,11,11,34,22.60
2007,09,11,11,35,22.70
2007,09,11,11,36,22.70
2007,09,11,11,37,22.70
2007,09,11,11,38,22.70
2007,09,11,11,39,22.60
2007,09,11,11,40,22.60
2007,09,11,11,41,22.50
2007,09,11,11,42,22.40
2007,09,11,11,43,22.30
2007,09,11,11,44,22.30
2007,09,11,11,45,22.30
2007,09,11,11,46,22.30
2007,09,11,11,47,22.30
2007,09,11,11,48,22.20
2007,09,11,11,49,22.20
2007,09,11,11,50,22.30
2007,09,11,11,51,22.40
2007,09,11,11,52,22.40
2007,09,11,11,53,22.60
2007,09,11,11,54,22.60
2007,09,11,11,55,22.70
2007,09,11,11,56,22.80
2007,09,11,11,57,22.90
2007,09,11,11,58,22.90
2007,09,11,11,59,22.90
2007,09,11,12,00,22.90
2007,09,11,12,01,22.90
2007,09,11,12,02,22.90
2007,09,11,12,03,22.90
2007,09,11,12,04,22.90
2007,09,11,12,05,22.90
2007,09,11,12,06,22.90
2007,09,11,12,07,22.90
2007,09,11,12,08,22.90
2007,09,11,12,09,22.90
2007,09,11,12,10,22.90
2007,09,11,12,11,22.90
2007,09,11,12,12,22.90
2007,09,11,12,13,22.90
2007,09,11,12,14,22.90
2007,09,11,12,15,22.90
2007,09,11,12,16,22.80
2007,09,11,12,17,22.60
2007,09,11,12,18,22.50
2007,09,11,12,19,22.40
2007,09,11,12,20,22.30
2007,09,11,12,21,22.30
2007,09,11,12,22,22.20
2007,09,11,12,23,22.10
2007,09,11,12,24,22.00
2007,09,11,12,25,22.00
2007,09,11,12,26,22.10
2007,09,11,12,27,22.10
2007,09,11,12,28,22.20
2007,09,11,12,29,22.30
2007,09,11,12,30,22.30
2007,09,11,12,31,22.40
2007,09,11,12,32,22.40
2007,09,11,12,33,22.40
2007,09,11,12,34,22.50
2007,09,11,12,35,22.50
2007,09,11,12,36,22.60
2007,09,11,12,37,22.70
2007,09,11,12,38,22.70
2007,09,11,12,39,22.70
2007,09,11,12,40,22.70
2007,09,11,12,41,22.60
2007,09,11,12,42,22.50
2007,09,11,12,43,22.30
2007,09,11,12,44,22.20
2007,09,11,12,45,22.10
2007,09,11,12,46,22.00
2007,09,11,12,47,22.10
2007,09,11,12,48,22.10
2007,09,11,12,49,22.30
2007,09,11,12,50,22.40
2007,09,11,12,51,22.50
2007,09,11,12,52,22.60
2007,09,11,12,53,22.60
2007,09,11,12,54,22.50
2007,09,11,12,55,22.40
2007,09,11,12,56,22.30
2007,09,11,12,57,22.30
2007,09,11,12,58,22.40
2007,09,11,12,59,22.40
2007,09,11,13,00,22.40
2007,09,11,13,01,22.30
2007,09,11,13,02,22.20
2007,09,11,13,03,22.10
2007,09,11,13,04,22.10
2007,09,11,13,05,22.10
2007,09,11,13,06,22.10
2007,09,11,13,07,22.10
2007,09,11,13,08,22.10
2007,09,11,13,09,22.10
2007,09,11,13,10,22.00
2007,09,11,13,11,22.00
2007,09,11,13,12,22.00
2007,09,11,13,13,21.90
2007,09,11,13,14,21.90
2007,09,11,13,15,21.90
2007,09,11,13,16,21.80
2007,09,11,13,17,21.80
2007,09,11,13,18,21.70
2007,09,11,13,19,21.60
2007,09,11,13,20,21.60
2007,09,11,13,21,21.50
2007,09,11,13,22,21.40
2007,09,11,13,23,21.30
2007,09,11,13,24,21.30
2007,09,11,13,25,21.30
2007,09,11,13,26,21.30
2007,09,11,13,27,21.30
2007,09,11,13,28,21.30
2007,09,11,13,29,21.30
2007,09,11,13,30,21.30
2007,09,11,13,31,21.30
2007,09,11,13,32,21.30
2007,09,11,13,33,21.30
2007,09,11,13,34,21.30
2007,09,11,13,35,21.30
2007,09,11,13,36,21.30
2007,09,11,13,37,21.20
2007,09,11,13,38,21.20
2007,09,11,13,39,21.20
2007,09,11,13,40,21.20
2007,09,11,13,41,21.20
2007,09,11,13,42,21.30
2007,09,11,13,43,21.40
2007,09,11,13,44,21.60
2007,09,11,13,45,21.60
2007,09,11,13,46,21.80
2007,09,11,13,47,21.90
2007,09,11,13,48,22.10
2007,09,11,13,49,22.10
2007,09,11,13,50,22.10
2007,09,11,13,51,22.00
2007,09,11,13,52,22.00
2007,09,11,13,53,21.90
2007,09,11,13,54,21.80
2007,09,11,13,55,21.70
2007,09,11,13,56,21.80
2007,09,11,13,57,21.80
2007,09,11,13,58,21.80
2007,09,11,13,59,21.80
2007,09,11,14,00,21.80
2007,09,11,14,01,21.70
2007,09,11,14,02,21.80
2007,09,11,14,03,21.80
2007,09,11,14,04,21.90
2007,09,11,14,05,22.00
2007,09,11,14,06,22.20
2007,09,11,14,07,22.30
2007,09,11,14,08,22.50
2007,09,11,14,09,22.60
2007,09,11,14,10,22.70
2007,09,11,14,11,22.70
2007,09,11,14,12,22.60
2007,09,11,14,13,22.60
2007,09,11,14,14,22.50
2007,09,11,14,15,22.40
2007,09,11,14,16,22.40
2007,09,11,14,17,22.40
2007,09,11,14,18,22.40
2007,09,11,14,19,22.40
2007,09,11,14,20,22.40
2007,09,11,14,21,22.40
2007,09,11,14,22,22.40
2007,09,11,14,23,22.30
2007,09,11,14,24,22.30
2007,09,11,14,25,22.30
2007,09,11,14,26,22.40
2007,09,11,14,27,22.50
2007,09,11,14,28,22.60
2007,09,11,14,29,22.70
2007,09,11,14,30,22.80
2007,09,11,14,31,22.90
2007,09,11,14,32,23.10
2007,09,11,14,33,23.10
2007,09,11,14,34,23.30
2007,09,11,14,35,23.40
2007,09,11,14,36,23.60
2007,09,11,14,37,23.80
2007,09,11,14,38,23.90
2007,09,11,14,39,23.90
2007,09,11,14,40,23.90
2007,09,11,14,41,24.10
2007,09,11,14,42,24.20
2007,09,11,14,43,24.30
2007,09,11,14,44,24.40
2007,09,11,14,45,24.50
2007,09,11,14,46,24.50
2007,09,11,14,47,24.40
2007,09,11,14,48,24.30
2007,09,11,14,49,24.20
2007,09,11,14,50,24.20
2007,09,11,14,51,24.10
2007,09,11,14,52,24.10
2007,09,11,14,53,24.10
2007,09,11,14,54,24.20
2007,09,11,14,55,24.40
2007,09,11,14,56,24.60
2007,09,11,14,57,24.70
2007,09,11,14,58,24.80
2007,09,11,14,59,24.90
2007,09,11,15,00,24.90
2007,09,11,15,01,24.90
2007,09,11,15,02,24.80
2007,09,11,15,03,24.80
2007,09,11,15,04,24.70
2007,09,11,15,05,24.50
2007,09,11,15,06,24.40
2007,09,11,15,07,24.30
2007,09,11,15,08,24.20
2007,09,11,15,09,24.30
2007,09,11,15,10,24.40
2007,09,11,15,11,24.40
2007,09,11,15,12,24.40
2007,09,11,15,13,24.40
2007,09,11,15,14,24.40
2007,09,11,15,15,24.40
2007,09,11,15,16,24.50
2007,09,11,15,17,24.60
2007,09,11,15,18,24.70
2007,09,11,15,19,24.90
2007,09,11,15,20,25.10
2007,09,11,15,21,25.20
2007,09,11,15,22,25.40
2007,09,11,15,23,25.40
2007,09,11,15,24,25.40
2007,09,11,15,25,25.40
2007,09,11,15,26,25.40
2007,09,11,15,27,25.40
2007,09,11,15,28,25.20
2007,09,11,15,29,25.00
2007,09,11,15,30,24.80
2007,09,11,15,31,24.70
2007,09,11,15,32,24.60
2007,09,11,15,33,24.60
2007,09,11,15,34,24.70
2007,09,11,15,35,24.80
2007,09,11,15,36,24.80
2007,09,11,15,37,24.80
2007,09,11,15,38,24.90
2007,09,11,15,39,25.00
2007,09,11,15,40,25.00
2007,09,11,15,41,24.90
2007,09,11,15,42,24.90
2007,09,11,15,43,24.70
2007,09,11,15,44,24.60
2007,09,11,15,45,24.50
2007,09,11,15,46,24.40
2007,09,11,15,47,24.40
2007,09,11,15,48,24.40
2007,09,11,15,49,24.40
2007,09,11,15,50,24.40
2007,09,11,15,51,24.30
2007,09,11,15,52,24.20
2007,09,11,15,53,24.10
2007,09,11,15,54,24.10
2007,09,11,15,55,23.90
2007,09,11,15,56,23.90
2007,09,11,15,57,23.80
2007,09,11,15,58,23.80
2007,09,11,15,59,23.90
2007,09,11,16,00,24.00
2007,09,11,16,01,24.10
2007,09,11,16,02,24.10
2007,09,11,16,03,24.10
2007,09,11,16,04,24.10
2007,09,11,16,05,24.10
2007,09,11,16,06,24.20
2007,09,11,16,07,24.20
2007,09,11,16,08,24.20
2007,09,11,16,09,24.20
2007,09,11,16,10,24.20
2007,09,11,16,11,24.20
2007,09,11,16,12,24.20
2007,09,11,16,13,24.20
2007,09,11,16,14,24.20
2007,09,11,16,15,24.10
2007,09,11,16,16,24.00
2007,09,11,16,17,23.90
2007,09,11,16,18,23.80
2007,09,11,16,19,23.70
2007,09,11,16,20,23.50
2007,09,11,16,21,23.40
2007,09,11,16,22,23.30
2007,09,11,16,23,23.10
2007,09,11,16,24,23.00
2007,09,11,16,25,22.90
2007,09,11,16,26,22.90
2007,09,11,16,27,22.90
2007,09,11,16,28,22.80
2007,09,11,16,29,22.70
2007,09,11,16,30,22.70
2007,09,11,16,31,22.70
2007,09,11,16,32,22.70
2007,09,11,16,33,22.70
2007,09,11,16,34,22.70
2007,09,11,16,35,22.70
2007,09,11,16,36,22.70
2007,09,11,16,37,22.80
2007,09,11,16,38,22.80
2007,09,11,16,39,23.00
2007,09,11,16,40,23.20
2007,09,11,16,41,23.30
2007,09,11,16,42,23.40
2007,09,11,16,43,23.60
2007,09,11,16,44,23.60
2007,09,11,16,45,23.70
2007,09,11,16,46,23.70
2007,09,11,16,47,23.70
2007,09,11,16,48,23.70
2007,09,11,16,49,23.80
2007,09,11,16,50,23.70
2007,09,11,16,51,23.70
2007,09,11,16,52,23.70
2007,09,11,16,53,23.70
2007,09,11,16,54,23.60
2007,09,11,16,55,23.60
2007,09,11,16,56,23.70
2007,09,11,16,57,23.70
2007,09,11,16,58,23.70
2007,09,11,16,59,23.70
2007,09,11,17,00,23.70
2007,09,11,17,01,23.70
2007,09,11,17,02,23.70
2007,09,11,17,03,23.70
2007,09,11,17,04,23.70
2007,09,11,17,05,23.70
2007,09,11,17,06,23.70
2007,09,11,17,07,23.70
2007,09,11,17,08,23.70
2007,09,11,17,09,23.70
2007,09,11,17,10,23.70
2007,09,11,17,11,23.60
2007,09,11,17,12,23.60
2007,09,11,17,13,23.70
2007,09,11,17,14,23.70
2007,09,11,17,15,23.70
2007,09,11,17,16,23.70
2007,09,11,17,17,23.70
2007,09,11,17,18,23.70
2007,09,11,17,19,23.70
2007,09,11,17,20,23.70
2007,09,11,17,21,23.70
2007,09,11,17,22,23.70
2007,09,11,17,23,23.70
2007,09,11,17,24,23.70
2007,09,11,17,25,23.70
2007,09,11,17,26,23.70
2007,09,11,17,27,23.70
2007,09,11,17,28,23.70
2007,09,11,17,29,23.70
2007,09,11,17,30,23.70
2007,09,11,17,31,23.70
2007,09,11,17,32,23.70
2007,09,11,17,33,23.80
2007,09,11,17,34,23.80
2007,09,11,17,35,23.80
2007,09,11,17,36,23.90
2007,09,11,17,37,23.90
2007,09,11,17,38,23.90
2007,09,11,17,39,24.10
2007,09,11,17,40,24.10
2007,09,11,17,41,24.10
2007,09,11,17,42,24.10
2007,09,11,17,43,24.10
2007,09,11,17,44,24.10
2007,09,11,17,45,24.10
2007,09,11,17,46,24.10
2007,09,11,17,47,24.10
2007,09,11,17,48,24.10
2007,09,11,17,49,24.10
2007,09,11,17,50,24.00
2007,09,11,17,51,23.90
2007,09,11,17,52,23.80
2007,09,11,17,53,23.70
2007,09,11,17,54,23.60
2007,09,11,17,55,23.60
2007,09,11,17,56,23.50
2007,09,11,17,57,23.40
2007,09,11,17,58,23.30
2007,09,11,17,59,23.30
2007,09,11,18,00,23.30
2007,09,11,18,01,23.30
2007,09,11,18,02,23.30
2007,09,11,18,03,23.30
2007,09,11,18,04,23.30
2007,09,11,18,05,23.30
2007,09,11,18,06,23.30
2007,09,11,18,07,23.40
2007,09,11,18,08,23.40